ROU2050 CYUL-CYHZ

Flight info

Callsign ROU2050
Flight time 1h 7m
Altitude 35000
Route SUXET DCT NOVUN DCT ESRAM DCT RABIK Q951 ANTOV DCT EBONY FUNDY5
Aircraft A321/M-SDE3FGHIRWY/LB1

Departure

Time 2026-05-04 05:17
Airport Montreal / Pierre Elliott Trudeau International Airport (CYUL)

Arrival

Time 2026-05-04 06:25
Airport Halifax / Stanfield International Airport (CYHZ)
Time Latitude Longitude Altitude Speed Heading
2026-05-04 04:44 45.45894 -73.74496 116 ft 0 kts 178°
2026-05-04 05:01 45.45908 -73.74497 112 ft 2 kts 178°
2026-05-04 05:01 45.45924 -73.74498 114 ft 2 kts 178°
2026-05-04 05:01 45.45940 -73.74498 112 ft 2 kts 178°
2026-05-04 05:01 45.45960 -73.74500 114 ft 3 kts 143°
2026-05-04 05:02 45.45969 -73.74524 113 ft 3 kts 75°
2026-05-04 05:02 45.45962 -73.74551 112 ft 3 kts 80°
2026-05-04 05:02 45.45961 -73.74576 114 ft 0 kts 73°
2026-05-04 05:02 45.45961 -73.74577 114 ft 0 kts 73°
2026-05-04 05:07 45.45962 -73.74571 116 ft 4 kts 73°
2026-05-04 05:09 45.46566 -73.73495 114 ft 24 kts 42°
2026-05-04 05:09 45.46689 -73.73336 114 ft 23 kts 42°
2026-05-04 05:10 45.46805 -73.73185 114 ft 22 kts 44°
2026-05-04 05:10 45.46912 -73.73044 112 ft 21 kts 43°
2026-05-04 05:10 45.47015 -73.72910 114 ft 20 kts 42°
2026-05-04 05:10 45.47123 -73.72770 114 ft 22 kts 42°
2026-05-04 05:11 45.47238 -73.72621 114 ft 23 kts 43°
2026-05-04 05:11 45.47360 -73.72459 115 ft 25 kts 43°
2026-05-04 05:11 45.47491 -73.72290 114 ft 26 kts 42°
2026-05-04 05:11 45.47629 -73.72109 112 ft 27 kts 42°
2026-05-04 05:12 45.47752 -73.71943 115 ft 16 kts 45°
2026-05-04 05:12 45.47815 -73.71840 114 ft 12 kts 76°
2026-05-04 05:12 45.47773 -73.71752 112 ft 10 kts 134°
2026-05-04 05:12 45.47760 -73.71733 112 ft 0 kts 134°
2026-05-04 05:14 45.47745 -73.71711 114 ft 6 kts 134°
2026-05-04 05:15 45.47713 -73.71665 114 ft 7 kts 135°
2026-05-04 05:15 45.47673 -73.71650 113 ft 6 kts 195°
2026-05-04 05:15 45.47645 -73.71679 113 ft 4 kts 222°
2026-05-04 05:15 45.47638 -73.71688 116 ft 0 kts 223°
2026-05-04 05:17 45.47619 -73.71713 114 ft 17 kts 223°
2026-05-04 05:17 45.47341 -73.72086 113 ft 94 kts 223°
2026-05-04 05:17 45.46661 -73.72974 118 ft 164 kts 220°
2026-05-04 05:17 45.45783 -73.74117 874 ft 172 kts 224°
2026-05-04 05:18 45.44865 -73.75153 1939 ft 176 kts 212°
2026-05-04 05:18 45.43571 -73.75533 2340 ft 204 kts 191°
2026-05-04 05:18 45.42065 -73.75558 2464 ft 232 kts 178°
2026-05-04 05:18 45.40465 -73.74640 2810 ft 266 kts 146°
2026-05-04 05:19 45.39320 -73.72499 3562 ft 280 kts 115°
2026-05-04 05:19 45.38597 -73.69914 4478 ft 281 kts 115°
2026-05-04 05:19 45.37781 -73.67392 5393 ft 281 kts 117°
2026-05-04 05:19 45.36915 -73.64901 6254 ft 282 kts 118°
2026-05-04 05:20 45.36027 -73.62386 7006 ft 287 kts 118°
2026-05-04 05:20 45.35126 -73.59815 7710 ft 293 kts 118°
2026-05-04 05:20 45.34217 -73.57185 8390 ft 300 kts 118°
2026-05-04 05:20 45.33298 -73.54492 9083 ft 306 kts 118°
2026-05-04 05:21 45.32362 -73.51730 9752 ft 313 kts 117°
2026-05-04 05:21 45.31410 -73.48907 10239 ft 325 kts 117°
2026-05-04 05:21 45.30400 -73.45909 10428 ft 348 kts 117°
2026-05-04 05:21 45.29326 -73.42703 10554 ft 371 kts 115°
2026-05-04 05:22 45.28657 -73.39102 10947 ft 383 kts 94°
2026-05-04 05:22 45.28702 -73.35294 11552 ft 388 kts 85°
2026-05-04 05:22 45.28851 -73.31464 12239 ft 391 kts 85°
2026-05-04 05:22 45.29015 -73.27585 12931 ft 395 kts 85°
2026-05-04 05:23 45.29185 -73.23678 13614 ft 399 kts 85°
2026-05-04 05:23 45.29351 -73.19720 14215 ft 402 kts 85°
2026-05-04 05:23 45.29509 -73.15787 14811 ft 406 kts 85°
2026-05-04 05:23 45.29668 -73.11722 15416 ft 409 kts 85°
2026-05-04 05:24 45.29821 -73.07723 15998 ft 413 kts 85°
2026-05-04 05:24 45.29977 -73.03638 16581 ft 416 kts 85°
2026-05-04 05:24 45.30136 -72.99522 17157 ft 419 kts 85°
2026-05-04 05:24 45.30296 -72.95373 17723 ft 422 kts 85°
2026-05-04 05:25 45.30455 -72.91188 18258 ft 426 kts 85°
2026-05-04 05:25 45.30611 -72.86971 18749 ft 429 kts 85°
2026-05-04 05:25 45.30763 -72.82735 19240 ft 431 kts 85°
2026-05-04 05:25 45.30914 -72.78464 19734 ft 434 kts 85°
2026-05-04 05:26 45.31063 -72.74169 20227 ft 437 kts 85°
2026-05-04 05:26 45.31209 -72.69847 20709 ft 439 kts 85°
2026-05-04 05:26 45.31357 -72.65495 21189 ft 442 kts 85°
2026-05-04 05:26 45.31510 -72.61126 21668 ft 445 kts 85°
2026-05-04 05:27 45.31666 -72.56721 22146 ft 447 kts 84°
2026-05-04 05:28 45.32692 -72.25190 25031 ft 465 kts 85°
2026-05-04 05:29 45.32833 -72.20596 25400 ft 467 kts 85°
2026-05-04 05:29 45.32973 -72.15977 25764 ft 469 kts 85°
2026-05-04 05:29 45.33114 -72.11335 26118 ft 471 kts 85°
2026-05-04 05:29 45.33255 -72.06672 26471 ft 474 kts 85°
2026-05-04 05:31 45.35243 -71.73606 28774 ft 487 kts 79°
2026-05-04 05:31 45.35760 -71.68901 29077 ft 488 kts 79°
2026-05-04 05:32 45.36277 -71.64142 29548 ft 486 kts 79°
2026-05-04 05:32 45.36787 -71.59397 29991 ft 485 kts 79°
2026-05-04 05:32 45.37291 -71.54662 30357 ft 484 kts 80°
2026-05-04 05:33 45.38285 -71.45217 31047 ft 482 kts 80°
2026-05-04 05:33 45.38785 -71.40503 31387 ft 482 kts 80°
2026-05-04 05:33 45.39286 -71.35788 31725 ft 482 kts 81°
2026-05-04 05:33 45.39784 -71.31080 32050 ft 481 kts 81°
2026-05-04 05:34 45.40282 -71.26371 32381 ft 481 kts 81°
2026-05-04 05:34 45.40777 -71.21660 32695 ft 481 kts 81°
2026-05-04 05:34 45.41269 -71.16954 33009 ft 481 kts 81°
2026-05-04 05:34 45.41759 -71.12243 33318 ft 481 kts 81°
2026-05-04 05:35 45.42243 -71.07533 33621 ft 481 kts 82°
2026-05-04 05:35 45.42503 -71.02790 33901 ft 480 kts 91°
2026-05-04 05:35 45.42272 -70.98060 34136 ft 479 kts 99°
2026-05-04 05:35 45.41707 -70.93391 34357 ft 479 kts 101°
2026-05-04 05:36 45.41137 -70.88724 34596 ft 479 kts 101°
2026-05-04 05:36 45.40576 -70.84051 34824 ft 479 kts 101°
2026-05-04 05:36 45.40020 -70.79378 34987 ft 480 kts 101°
2026-05-04 05:37 45.38915 -70.70058 35026 ft 476 kts 101°
2026-05-04 05:37 45.37802 -70.60783 35024 ft 475 kts 101°
2026-05-04 05:38 45.36114 -70.46962 35021 ft 475 kts 101°
2026-05-04 05:38 45.34968 -70.37727 35013 ft 474 kts 101°
2026-05-04 05:39 45.33235 -70.23885 35013 ft 474 kts 101°
2026-05-04 05:40 45.31499 -70.10053 35010 ft 474 kts 101°
2026-05-04 05:40 45.30339 -70.00831 35005 ft 474 kts 101°
2026-05-04 05:41 45.29173 -69.91616 34999 ft 474 kts 101°
2026-05-04 05:41 45.27987 -69.82398 34997 ft 474 kts 101°
2026-05-04 05:42 45.26785 -69.73195 34993 ft 474 kts 102°
2026-05-04 05:42 45.25584 -69.63982 34990 ft 474 kts 102°
2026-05-04 05:43 45.24385 -69.54778 34984 ft 474 kts 101°
2026-05-04 05:45 45.19482 -69.18066 34974 ft 474 kts 102°
2026-05-04 05:47 45.14491 -68.81456 34754 ft 474 kts 102°
2026-05-04 05:47 45.13214 -68.72301 34761 ft 474 kts 102°
2026-05-04 05:48 45.11931 -68.63138 34763 ft 475 kts 102°
2026-05-04 05:48 45.10735 -68.54616 34767 ft 475 kts 102°
2026-05-04 05:49 45.09439 -68.45453 34768 ft 475 kts 102°
2026-05-04 05:49 45.08134 -68.36275 34768 ft 476 kts 102°
2026-05-04 05:51 45.02861 -67.99703 34742 ft 476 kts 103°
2026-05-04 05:52 45.01520 -67.90536 34739 ft 476 kts 103°
2026-05-04 05:52 45.00171 -67.81381 34730 ft 476 kts 103°
2026-05-04 05:54 44.94690 -67.44751 34719 ft 477 kts 103°
2026-05-04 05:55 44.93305 -67.35604 34716 ft 477 kts 103°
2026-05-04 05:55 44.91910 -67.26457 34710 ft 477 kts 103°
2026-05-04 05:56 44.90501 -67.17313 34713 ft 477 kts 103°
2026-05-04 05:56 44.89098 -67.08162 34692 ft 478 kts 103°
2026-05-04 05:57 44.87719 -66.98987 34681 ft 479 kts 101°
2026-05-04 05:57 44.87495 -66.94367 34681 ft 479 kts 89°
2026-05-04 05:57 44.87567 -66.89672 34680 ft 479 kts 89°
2026-05-04 05:58 44.87714 -66.80275 34676 ft 479 kts 89°
2026-05-04 05:58 44.87864 -66.70887 34664 ft 479 kts 89°
2026-05-04 05:59 44.88001 -66.61486 34649 ft 479 kts 90°
2026-05-04 05:59 44.88134 -66.52093 34647 ft 479 kts 90°
2026-05-04 06:00 44.88236 -66.44275 34638 ft 480 kts 90°
2026-05-04 06:00 44.88358 -66.34857 34633 ft 481 kts 90°
2026-05-04 06:01 44.88462 -66.25426 34628 ft 482 kts 90°
2026-05-04 06:03 44.88810 -65.87590 34572 ft 484 kts 90°
2026-05-04 06:05 44.89031 -65.53696 28908 ft 495 kts 89°
2026-05-04 06:05 44.89023 -65.44027 27294 ft 490 kts 90°
2026-05-04 06:05 44.88957 -65.39315 26688 ft 485 kts 90°
2026-05-04 06:06 44.88862 -65.34526 26056 ft 480 kts 90°
2026-05-04 06:06 44.88761 -65.29906 25428 ft 476 kts 90°
2026-05-04 06:06 44.88660 -65.25263 24786 ft 472 kts 90°
2026-05-04 06:06 44.88567 -65.20666 24191 ft 467 kts 90°
2026-05-04 06:07 44.88483 -65.16109 23594 ft 463 kts 89°
2026-05-04 06:07 44.88405 -65.11591 22993 ft 458 kts 89°
2026-05-04 06:07 44.88328 -65.07123 22373 ft 453 kts 89°
2026-05-04 06:07 44.88249 -65.02719 21849 ft 446 kts 89°
2026-05-04 06:08 44.88167 -64.98379 21342 ft 439 kts 89°
2026-05-04 06:08 44.88086 -64.94107 20859 ft 433 kts 89°
2026-05-04 06:08 44.88003 -64.89893 20384 ft 426 kts 89°
2026-05-04 06:08 44.87920 -64.85746 19922 ft 420 kts 89°
2026-05-04 06:09 44.87838 -64.81660 19472 ft 415 kts 88°
2026-05-04 06:09 44.87756 -64.77623 19022 ft 410 kts 88°
2026-05-04 06:11 44.87158 -64.50460 16403 ft 384 kts 87°
2026-05-04 06:11 44.87072 -64.46711 15933 ft 381 kts 87°
2026-05-04 06:13 44.86435 -64.20964 12574 ft 373 kts 88°
2026-05-04 06:14 44.84385 -63.99517 10425 ft 346 kts 93°
2026-05-04 06:14 44.84057 -63.96210 10257 ft 336 kts 93°
2026-05-04 06:15 44.83736 -63.92976 10053 ft 329 kts 92°
2026-05-04 06:15 44.83424 -63.89779 9929 ft 331 kts 92°
2026-05-04 06:15 44.83111 -63.86531 9431 ft 335 kts 92°
2026-05-04 06:15 44.82794 -63.83305 9095 ft 331 kts 92°
2026-05-04 06:16 44.82473 -63.80098 8677 ft 330 kts 92°
2026-05-04 06:16 44.82152 -63.76919 8136 ft 327 kts 92°
2026-05-04 06:16 44.81835 -63.73765 7581 ft 324 kts 92°
2026-05-04 06:16 44.81519 -63.70587 6713 ft 330 kts 92°
2026-05-04 06:17 44.81206 -63.67431 6092 ft 327 kts 92°
2026-05-04 06:17 44.80886 -63.64303 5544 ft 320 kts 92°
2026-05-04 06:17 44.80571 -63.61268 5262 ft 303 kts 92°
2026-05-04 06:17 44.80272 -63.58437 5186 ft 283 kts 92°
2026-05-04 06:18 44.79987 -63.55679 5109 ft 280 kts 91°
2026-05-04 06:18 44.79579 -63.53028 5000 ft 281 kts 107°
2026-05-04 06:18 44.78648 -63.50599 4676 ft 280 kts 124°
2026-05-04 06:20 44.80763 -63.39108 2573 ft 136 kts 345°
2026-05-04 06:20 44.81651 -63.39202 2407 ft 124 kts 334°
2026-05-04 06:21 44.84463 -63.41925 1728 ft 117 kts 301°
2026-05-04 06:21 44.84914 -63.42825 1572 ft 109 kts 301°
2026-05-04 06:22 44.85348 -63.43694 1424 ft 109 kts 300°
2026-05-04 06:22 44.85790 -63.44580 1283 ft 112 kts 300°
2026-05-04 06:25 44.88910 -63.51465 449 ft 8 kts 216°
2026-05-04 06:25 44.88885 -63.51490 450 ft 0 kts 216°